IRIDIUM 59 [+] (25275 NORAD) Tracking and Keplerian Element Data

This shows tracking and keplerian element data for the satellite.

Feedback or suggestion? Click here.




ElementValue
Catalog25275
NameIRIDIUM 59 [+]
Epoch Orbit8434
Epoch Day348.76592775
Epoch Year2018
RAAN59.3373
Inclination86.3976
Eccentricity0.0002333
Argument of Perigee97.0603
Mean Anonmoly263.0858
Mean Motion14.34223196
Decay Rate1.59E-06
L11 25275U 98019D 18348.76592775 .00000159 00000-0 49583-4 0 9998
L22 25275 86.3976 59.3373 0002333 97.0603 263.0858 14.34223196 84344

Live tracking and technical data element details for IRIDIUM 59 [+] (NORAD 25275). IRIDIUM 59 [+] can be tracked NOW for your location showing map with azimuth and elevation plus other details from your city location.

Track the satellite on the map from your city or location and see movement details for azimuth, elevation, latitude, longitude, range, height, and movement on the map or in text.







IsCatalogInMostPopularTable: catalog: 25275, numindb: 41
Update: records affected: 1



GetName: 25275 IRIDIUM 59 [+]

Hit Count: updated at: Sat, 15 Dec 2018 18:57:06 GMT